Content
SEND FEEDBACK

Daily
Averages
Monthly
Summary
United States of America

TAMUNING, GUAM


Home > North America > United States > Guam
Elevation: 250 feet     Latitude: 13 29N     Longitude: 144 47E

WEATHER
 
SELECT A DAY
Number of Records: 357,395;   Date Range: 1/1/95 - 12/27/14
 
SHARE

PRINT THIS DATA

[ ← Previous Day ]
WEATHER ALMANAC - MARCH 17, 2013
[ Next Day → ]
[ °C ]   °F
Weather ElementAverageHighLow
Temperature78.9 °F82.6 °F (10:55 am)75.2 °F (6:04 pm)
Dewpoint70.9 °F73.4 °F (5:44 pm)69.6 °F (6:55 am)
Humidity76.9 %94 % (6:26 pm)66 % (11:39 am)
Barometer29.87 in29.92 in (8:41 am)29.83 in (3:47 pm)
Wind Speed16.3 mph21.9 mph (6:04 pm)
Wind Gust25.3 mph (3:52 pm)
Weather ElementAverage
Visibility9.6 mi
Wind DirectionNE (45.2 °)

Weather ElementTotal
Precipitation0.10 in
Cooling Degree Days13.9 (Base 65)
Growing Degree Days28.9 (Base 50)
Averaged from 71 records on March 17, 2013
WEATHER CONDITIONS BREAKOUT
WIND DIRECTION BREAKOUT
WEATHER BY HOUR - MARCH 17, 2013
[ °C ]   °F
Local TimeTemperatureDewpointHumidityBarometerVisibilityWind DirectionWind SpeedGust SpeedPrecipitationEventsConditions
1:55 AM76.1 °F70.3 °F82 %29.88 in10.0 miENE (60°)8.1 mphClear
2:55 AM76.6 °F70.5 °F81 %29.86 in10.0 miNE (50°)12.7 mphPartly Cloudy
3:37 AM77.0 °F71.6 °F83 %29.87 in10.0 miNE (40°)12.7 mphMostly Cloudy
3:44 AM77.0 °F71.6 °F83 %29.87 in10.0 miNE (40°)11.5 mphMostly Cloudy
3:48 AM77.0 °F71.6 °F83 %29.87 in10.0 miNE (40°)13.8 mphMostly Cloudy
3:55 AM77.0 °F70.9 °F81 %29.87 in10.0 miNE (40°)15.0 mphMostly Cloudy
4:08 AM77.0 °F69.8 °F78 %29.87 in10.0 miNE (50°)12.7 mphScattered Clouds
4:15 AM77.0 °F71.6 °F83 %29.87 in10.0 miNE (40°)11.5 mphMostly Cloudy
4:20 AM77.0 °F69.8 °F78 %29.87 in10.0 miNE (40°)15.0 mphScattered Clouds
4:39 AM77.0 °F69.8 °F78 %29.87 in10.0 miNE (40°)12.7 mphMostly Cloudy
4:55 AM76.8 °F70.3 °F80 %29.87 in10.0 miNE (40°)11.5 mphMostly Cloudy
4:59 AM77.0 °F69.8 °F78 %29.87 in10.0 miNE (40°)12.7 mphScattered Clouds
5:55 AM76.6 °F69.8 °F79 %29.88 in10.0 miNE (40°)12.7 mphPartly Cloudy
6:55 AM76.8 °F69.6 °F78 %29.90 in10.0 miNE (40°)11.5 mphPartly Cloudy
7:55 AM78.4 °F69.8 °F75 %29.91 in10.0 miNE (40°)15.0 mphPartly Cloudy
8:41 AM80.6 °F69.8 °F70 %29.92 in10.0 miNE (40°)17.3 mphMostly Cloudy
8:44 AM80.6 °F69.8 °F70 %29.92 in10.0 miNE (40°)13.8 mphScattered Clouds
8:55 AM80.8 °F70.7 °F71 %29.92 in10.0 miNNE (30°)15.0 mphScattered Clouds
9:55 AM81.5 °F70.5 °F69 %29.92 in10.0 miNNE (30°)13.8 mphPartly Cloudy
10:55 AM82.6 °F70.5 °F67 %29.91 in10.0 miNE (40°)16.1 mphPartly Cloudy
11:13 AM80.6 °F71.6 °F74 %29.91 in10.0 miNNE (30°)15.0 mphMostly Cloudy
11:35 AM82.4 °F71.6 °F70 %29.90 in10.0 miNE (40°)19.6 mphScattered Clouds
11:39 AM82.4 °F69.8 °F66 %29.91 in10.0 miNE (40°)17.3 mphMostly Cloudy
11:47 AM82.4 °F69.8 °F66 %29.90 in10.0 miNE (40°)17.3 mphScattered Clouds
11:55 AM82.4 °F70.7 °F68 %29.90 in10.0 miNE (40°)18.4 mphPartly Cloudy
12:55 PM82.6 °F71.1 °F68 %29.87 in10.0 miNE (40°)17.3 mphScattered Clouds
1:16 PM82.4 °F71.6 °F70 %29.86 in10.0 miNE (40°)18.4 mphMostly Cloudy
1:26 PM82.4 °F69.8 °F66 %29.86 in10.0 miNE (40°)20.7 mphScattered Clouds
1:55 PM81.7 °F70.5 °F69 %29.86 in10.0 miNE (40°)18.4 mph23.0 mphMostly Cloudy
2:30 PM82.4 °F71.6 °F70 %29.85 in10.0 miNE (40°)19.6 mphMostly Cloudy
2:36 PM80.6 °F69.8 °F70 %29.85 in10.0 miNE (40°)19.6 mphMostly Cloudy
2:44 PM82.4 °F69.8 °F66 %29.85 in10.0 miNE (40°)18.4 mphMostly Cloudy
2:47 PM82.4 °F69.8 °F66 %29.85 in10.0 miNE (40°)19.6 mphMostly Cloudy
2:55 PM82.2 °F70.5 °F68 %29.84 in10.0 miNE (50°)18.4 mphMostly Cloudy
3:01 PM82.4 °F69.8 °F66 %29.84 in10.0 miNE (40°)18.4 mphMostly Cloudy
3:03 PM82.4 °F69.8 °F66 %29.84 in10.0 miNE (40°)18.4 mphMostly Cloudy
3:04 PM82.4 °F69.8 °F66 %29.84 in10.0 miNE (40°)17.3 mphMostly Cloudy
3:26 PM80.6 °F69.8 °F70 %29.84 in10.0 miNE (40°)18.4 mphScattered Clouds
3:34 PM82.4 °F71.6 °F70 %29.84 in10.0 miNE (40°)18.4 mphMostly Cloudy
3:47 PM82.4 °F69.8 °F66 %29.83 in10.0 miNE (40°)18.4 mphMostly Cloudy
3:52 PM82.4 °F71.6 °F70 %29.84 in10.0 miNE (40°)18.4 mph25.3 mphMostly Cloudy
3:55 PM82.2 °F70.7 °F68 %29.83 in10.0 miNE (50°)18.4 mph25.3 mphMostly Cloudy
4:46 PM80.6 °F69.8 °F70 %29.84 in10.0 miNE (50°)17.3 mphScattered Clouds
4:55 PM79.9 °F69.6 °F71 %29.84 in10.0 miNE (50°)18.4 mphScattered Clouds
5:11 PM78.8 °F69.8 °F74 %29.85 in10.0 miNE (40°)17.3 mph24.2 mphMostly Cloudy
5:21 PM78.8 °F69.8 °F74 %29.85 in10.0 miNE (40°)18.4 mphMostly Cloudy
5:27 PM78.8 °F69.8 °F74 %29.85 in10.0 miNE (40°)18.4 mphMostly Cloudy
5:44 PM77.0 °F73.4 °F89 %29.86 in10.0 miENE (70°)17.3 mphMostly Cloudy
5:45 PM77.0 °F73.4 °F89 %29.86 in10.0 miENE (70°)18.4 mphMostly Cloudy
5:55 PM76.6 °F71.4 °F84 %29.87 in10.0 miENE (60°)19.6 mphMostly Cloudy
6:04 PM75.2 °F71.6 °F89 %29.87 in6.0 miENE (60°)21.9 mphRainLight Rain
6:07 PM75.2 °F71.6 °F89 %29.90 in4.0 miENE (70°)16.1 mphRainLight Rain
6:09 PM75.2 °F71.6 °F89 %29.87 in2.5 miENE (70°)16.1 mphRainRain
6:15 PM75.2 °F71.6 °F89 %29.87 in3.0 miNE (50°)16.1 mphRainLight Rain
6:17 PM75.2 °F71.6 °F89 %29.87 in4.0 miNE (50°)15.0 mphRainLight Rain
6:26 PM75.2 °F73.4 °F94 %29.87 in10.0 miNE (40°)17.3 mphMostly Cloudy
6:55 PM76.5 °F72.5 °F87 %29.88 in10.0 miNE (50°)15.0 mph0.10 inPartly Cloudy
7:22 PM77.0 °F73.4 °F89 %29.88 in10.0 miNE (50°)12.7 mphMostly Cloudy
7:32 PM77.0 °F71.6 °F83 %29.88 in10.0 miENE (60°)16.1 mphMostly Cloudy
7:55 PM76.5 °F71.6 °F85 %29.89 in10.0 miENE (60°)16.1 mphPartly Cloudy
8:55 PM76.8 °F71.1 °F82 %29.90 in10.0 miNE (50°)17.3 mphMostly Cloudy
9:55 PM77.2 °F70.9 °F81 %29.89 in10.0 miNE (40°)16.1 mphScattered Clouds
10:23 PM77.0 °F71.6 °F83 %29.89 in10.0 miNE (50°)16.1 mphMostly Cloudy
10:31 PM77.0 °F71.6 °F83 %29.89 in10.0 miNE (40°)17.3 mphMostly Cloudy
10:32 PM77.0 °F71.6 °F83 %29.89 in10.0 miNE (40°)17.3 mphMostly Cloudy
10:55 PM77.5 °F71.8 °F82 %29.89 in10.0 miNE (50°)16.1 mphMostly Cloudy
11:08 PM77.0 °F71.6 °F83 %29.88 in10.0 miNE (50°)17.3 mphMostly Cloudy
11:53 PM77.0 °F71.6 °F83 %29.88 in10.0 miNE (50°)16.1 mphMostly Cloudy
11:55 PM77.5 °F71.6 °F82 %29.88 in10.0 miNE (50°)16.1 mphMostly Cloudy
11:58 PM77.0 °F71.6 °F83 %29.88 in10.0 miNE (50°)17.3 mphMostly Cloudy
11:59 PM77.0 °F71.6 °F83 %29.88 in10.0 miNE (50°)16.1 mphMostly Cloudy
Hourly data recorded from PGUA, located miles away from Tamuning, Guam







STORIES FROM OUR PARTNERS